Theta_e
318 317 315 315 314 314 313 313 313 314 315 317 322 326 328 329 328 327 332 334 335 334 330 333 332 332 333 333 340 342 347 352 351 351 350 354 354 352 352 351 350 351 351 349 347
318 318 317 316 315 315 314 314 313 313 314 316 321 325 328 329 327 325 330 333 335 331 331 332 332 332 332 333 341 342 347 347 345 348 350 353 352 354 353 353 353 350 349 349 343
316 318 318 317 316 316 315 314 314 314 314 316 320 325 327 328 326 328 328 329 328 328 331 332 332 331 332 331 337 341 344 341 343 345 348 353 351 354 353 353 351 352 351 350 345
314 316 318 318 318 317 316 315 314 314 314 315 319 324 327 327 329 329 329 329 327 329 330 333 331 331 332 333 331 341 339 340 341 346 350 352 352 351 352 348 349 350 348 351 349
313 315 317 318 318 318 317 316 315 314 314 315 318 323 326 326 328 328 329 329 328 328 331 332 330 330 332 331 333 337 334 339 340 343 348 349 351 351 351 351 347 348 348 350 350
313 314 315 317 318 318 317 316 316 315 315 315 317 321 324 326 327 330 330 330 329 330 333 331 330 329 330 331 332 331 332 332 337 341 342 345 347 349 349 348 348 349 349 350 349
313 313 314 316 317 318 318 317 316 315 315 315 316 319 323 327 328 330 328 328 328 330 333 331 331 330 329 332 329 331 333 333 335 338 341 342 344 346 347 347 350 351 350 351 349
314 313 313 315 317 318 318 317 317 316 315 315 316 318 324 326 328 330 327 327 328 329 331 331 330 329 329 328 329 331 334 336 335 336 337 340 341 341 343 349 351 351 351 351 350
318 314 313 314 316 318 318 318 317 316 315 315 316 318 324 326 326 327 327 327 327 328 330 330 329 328 328 330 331 330 332 332 333 333 337 339 340 336 337 348 349 351 350 350 351
320 317 314 314 316 318 318 318 317 316 315 315 315 321 323 324 325 327 327 327 327 328 328 328 327 330 328 331 331 331 331 330 331 331 334 337 339 338 341 346 349 349 349 349 350
321 318 315 314 316 318 318 317 316 316 315 316 316 321 324 320 324 326 326 327 327 328 329 325 330 331 329 328 328 328 329 330 330 329 330 335 337 336 335 343 345 349 348 347 347
321 317 316 315 316 318 317 321 321 321 322 317 315 316 318 319 322 325 326 327 327 328 326 328 330 328 326 326 327 327 329 331 329 327 330 332 333 334 331 335 341 347 348 348 347
320 316 315 315 317 317 319 322 324 324 322 323 324 324 324 322 322 324 326 326 327 327 327 328 328 325 326 326 327 328 329 329 328 327 328 330 332 333 332 332 332 340 346 348 349
319 317 314 315 316 318 319 322 327 326 326 325 326 325 322 322 322 325 326 326 326 327 326 328 326 326 327 327 327 329 325 325 326 329 331 328 334 335 336 335 336 335 338 344 348
318 317 314 316 317 319 324 327 323 324 324 326 325 324 322 322 321 322 325 326 327 327 326 328 326 327 327 328 325 329 326 328 328 329 330 331 332 335 342 344 344 337 341 338 339
318 318 314 316 319 325 327 327 324 328 333 329 323 324 322 321 321 321 324 325 324 326 325 327 323 325 326 326 325 325 327 328 328 330 333 330 331 337 346 345 346 345 346 345 339
319 319 314 316 324 327 327 324 329 331 327 328 326 323 324 323 323 323 324 325 326 327 327 325 325 324 324 327 326 327 330 333 333 334 334 328 333 337 343 345 346 347 346 342 341
322 320 314 320 327 327 326 329 332 330 331 327 323 322 324 322 323 323 323 324 322 323 325 327 331 329 325 328 330 328 331 333 335 334 334 330 337 338 344 344 347 346 345 345 345
324 325 315 321 327 326 327 329 329 330 331 330 325 325 326 325 324 324 325 325 325 324 327 327 331 329 327 327 328 328 333 326 330 327 332 332 338 341 344 346 348 348 347 347 347
325 325 319 323 326 328 330 327 330 327 329 328 329 328 328 327 326 325 325 324 325 323 325 327 330 329 330 327 326 330 326 332 332 336 335 334 336 335 348 347 349 349 348 348 348
330 327 320 326 329 329 331 330 329 328 329 329 330 328 328 329 326 325 324 329 329 325 322 325 329 331 329 330 330 329 330 327 329 332 335 334 334 337 342 346 346 346 347 348 348
331 329 322 326 328 322 330 328 326 328 327 328 328 329 331 330 329 330 327 331 327 325 326 327 329 331 330 327 324 326 329 329 333 333 330 333 332 334 344 343 340 344 347 349 348
330 327 323 326 327 329 325 326 326 327 328 327 328 328 328 329 334 331 330 327 326 329 329 328 331 334 331 329 327 329 327 324 326 327 333 330 329 337 339 338 337 341 347 348 347
330 333 325 327 323 325 328 328 328 325 326 327 328 326 330 330 329 331 330 328 325 327 324 326 328 335 335 334 329 330 328 326 328 331 330 329 329 329 333 340 338 337 346 346 345
327 326 326 331 329 327 326 326 329 329 327 327 330 329 330 333 331 330 328 329 327 323 324 328 334 330 328 327 327 328 329 328 329 329 330 330 329 328 339 339 338 339 344 342 340
324 325 324 324 324 326 322 329 328 327 327 330 331 327 328 332 331 332 329 329 330 329 326 324 333 328 330 327 327 328 328 327 326 326 326 328 332 337 335 336 337 337 337 335 334
321 324 323 321 322 326 327 327 327 326 326 326 326 328 329 326 325 322 322 321 322 326 329 329 329 330 332 324 326 329 328 327 328 332 332 332 335 335 334 333 332 331 331 330 329
Wind_Speed
6 6 6 6 5 6 6 6 6 7 7 7 7 5 6 6 7 7 6 3 5 8 10 10 12 10 5 3 3 3 2 1 0 2 2 8 4 4 3 5 3 3 4 5 23
7 7 7 6 6 6 6 6 6 7 7 7 7 5 5 6 6 5 5 4 6 7 6 10 14 9 3 3 2 2 0 3 2 2 3 7 5 8 5 5 5 5 4 13 27
8 8 7 7 7 6 6 6 6 7 7 8 7 5 5 5 3 4 4 1 2 3 5 9 15 5 4 2 2 0 2 3 2 5 5 4 4 5 4 3 9 11 15 22 27
9 9 8 8 7 7 6 6 6 7 7 8 7 6 4 2 4 4 6 4 2 1 3 8 14 4 3 2 2 3 2 4 1 5 5 4 5 4 8 0 3 8 14 25 27
9 9 8 8 7 7 6 6 6 7 7 7 7 5 4 3 2 1 5 4 3 0 3 9 11 5 4 4 3 2 7 3 3 5 5 6 9 6 11 8 2 12 19 23 26
8 9 8 8 7 6 6 6 6 6 7 7 7 5 4 3 3 5 4 3 1 2 4 8 7 8 2 3 3 6 8 13 4 7 6 7 3 5 1 6 8 14 20 22 26
7 7 8 7 7 6 6 6 6 6 6 7 6 6 7 8 3 4 5 2 2 1 4 5 9 6 4 2 6 5 5 6 5 3 4 4 6 10 8 9 14 17 16 19 24
6 6 6 7 7 6 6 6 5 5 6 6 6 5 7 5 7 6 5 3 3 2 3 3 9 5 3 5 3 4 2 4 4 2 1 6 14 5 9 15 17 19 19 19 22
6 4 5 6 6 6 6 5 5 5 5 5 5 4 5 4 10 10 7 2 2 4 3 3 5 4 3 3 2 6 2 4 7 3 1 7 12 1 5 14 17 22 22 22 20
8 3 4 6 7 7 7 5 4 5 5 4 4 2 6 2 8 12 8 5 3 6 4 2 3 2 2 5 4 7 4 5 5 3 1 8 16 13 6 14 21 23 23 24 23
9 3 3 6 8 9 9 7 4 2 9 6 3 2 3 6 8 9 8 6 4 5 2 4 2 2 4 1 3 5 4 6 4 4 3 7 13 17 10 16 18 19 22 24 29
9 3 4 7 9 9 10 4 4 3 3 13 13 13 12 9 2 9 11 4 3 3 1 1 3 2 3 1 2 2 3 5 9 2 2 8 12 11 4 10 16 17 22 27 22
9 2 4 8 9 10 9 6 3 3 1 3 7 8 5 6 5 11 12 5 4 4 2 2 1 5 1 2 5 3 3 4 5 6 2 9 5 7 4 4 5 11 19 23 25
9 2 5 9 8 9 7 4 6 4 1 3 3 3 6 6 3 13 11 5 2 3 5 5 1 3 5 5 1 3 4 7 7 4 4 5 3 3 8 5 10 12 9 16 20
8 0 7 12 7 10 5 3 4 6 3 5 4 3 7 2 5 7 12 6 5 5 4 2 2 1 5 4 4 2 2 1 2 3 3 4 4 3 7 8 16 15 12 8 15
6 2 8 11 12 8 2 5 3 3 3 4 4 5 5 1 2 3 3 5 3 3 1 7 2 4 4 1 4 2 2 2 2 1 1 4 4 3 6 7 14 18 16 14 8
3 3 9 12 11 4 5 6 2 1 1 6 4 6 5 5 4 3 8 8 4 3 4 3 5 3 3 3 3 4 2 1 2 1 3 2 3 3 8 8 10 16 16 11 4
1 3 10 13 12 5 9 1 1 1 1 2 4 8 7 6 3 3 6 7 3 2 0 2 5 2 4 4 3 2 1 1 3 4 4 1 2 2 6 10 10 7 5 3 5
2 4 8 15 9 5 3 2 1 2 2 1 4 4 4 4 2 3 6 6 8 12 5 3 1 2 7 1 3 5 2 2 4 1 3 1 3 7 4 5 7 7 4 1 5
4 6 9 15 9 5 1 2 2 3 3 2 4 3 8 7 8 7 7 2 3 12 13 2 2 0 1 2 12 2 8 2 0 3 7 3 4 6 4 2 3 4 3 4 6
7 5 9 14 8 2 2 3 4 6 6 4 3 4 4 4 3 4 4 1 1 2 10 6 4 3 2 4 0 3 3 4 2 2 4 6 3 4 5 3 6 6 7 8 4
4 3 14 11 2 1 2 3 3 4 1 3 0 3 3 3 3 2 4 2 6 6 7 6 2 3 1 3 1 2 2 2 3 2 1 2 4 6 1 5 9 8 7 8 7
4 5 12 5 3 2 3 3 4 3 3 4 2 3 3 3 3 1 2 2 7 3 6 8 3 4 3 2 2 4 3 2 4 1 5 4 3 2 3 7 9 9 7 7 9
3 3 2 3 2 2 1 2 2 2 0 2 2 3 3 3 5 4 2 3 5 3 3 2 2 3 6 1 2 4 5 5 5 4 3 8 10 7 4 9 11 8 5 5 7
2 2 4 4 5 4 1 2 3 1 1 4 3 4 2 3 2 2 1 0 2 4 2 2 1 2 1 1 3 3 6 8 8 6 7 12 7 8 8 10 11 4 2 4 7
2 2 3 2 2 5 3 3 3 2 3 2 4 3 2 3 1 4 2 0 1 3 3 3 1 1 2 2 4 6 7 8 8 6 8 9 11 3 4 1 3 5 4 6 6
4 4 2 1 2 3 3 0 1 3 7 6 7 7 9 4 3 5 4 5 4 4 2 1 5 4 7 2 2 8 10 10 4 2 4 7 3 4 2 4 3 4 4 4 5
Wind_Direction
299 290 281 274 268 263 257 249 242 238 233 232 239 251 274 289 299 294 292 269 311 333 345 350 357 11 78 74 72 82 59 26 133 194 314 139 140 173 165 151 173 170 113 171 165
290 283 277 270 266 262 258 251 243 237 235 233 237 248 275 298 298 290 274 277 302 329 340 352 7 23 68 59 46 23 336 201 208 205 270 158 170 190 187 179 183 163 147 157 164
286 277 270 267 263 260 255 250 244 235 232 233 234 245 275 316 333 121 106 117 352 352 339 4 10 40 70 93 57 24 310 305 207 212 245 151 167 203 211 219 205 195 161 164 170
280 271 266 262 260 256 253 247 242 235 230 232 231 240 268 313 150 128 82 97 20 330 17 20 15 45 57 58 350 282 235 221 339 200 159 183 160 225 226 291 332 181 177 169 177
278 265 259 257 255 251 247 241 237 234 231 228 228 239 266 268 228 45 94 98 79 41 62 27 25 20 33 353 4 315 338 289 254 195 199 176 210 223 245 242 296 160 167 177 185
280 262 253 250 248 245 240 236 231 229 229 224 224 231 254 257 180 113 99 92 128 186 62 33 5 360 78 352 356 325 309 296 268 197 214 221 237 188 327 204 172 173 176 183 193
291 260 248 243 240 235 232 228 226 222 222 221 219 228 247 226 169 150 150 76 78 172 105 17 1 3 347 347 338 310 319 324 274 222 220 213 256 234 242 189 175 183 190 191 199
307 265 244 235 229 223 221 219 219 216 213 217 218 231 251 243 219 197 216 337 92 81 90 5 345 5 25 318 10 26 48 341 359 25 321 192 273 276 238 184 188 190 193 203 205
331 280 238 223 215 208 205 202 204 206 201 206 211 212 258 232 218 203 233 304 11 99 85 346 339 37 25 5 52 23 346 5 329 359 62 216 274 271 219 208 201 197 200 204 216
352 306 231 208 198 190 185 177 182 190 186 188 215 227 244 165 195 213 230 214 181 138 106 67 31 34 54 26 6 317 345 323 293 320 244 247 260 261 225 214 220 205 205 207 213
357 331 213 191 185 180 170 151 148 191 202 193 202 214 140 30 178 191 187 189 144 102 98 36 261 61 332 61 303 291 289 305 266 279 281 277 259 272 244 227 233 215 214 216 218
358 347 191 182 178 171 166 169 168 136 268 236 247 250 258 291 163 177 172 168 121 127 142 231 225 161 281 6 266 241 285 284 291 293 230 283 282 299 265 261 251 227 220 225 224
357 352 177 174 171 170 169 161 158 293 258 240 230 248 229 188 188 176 171 146 108 129 120 223 312 256 207 331 305 198 237 261 281 314 222 310 299 8 339 322 317 237 230 232 230
354 356 170 164 167 168 176 191 284 223 181 163 213 199 180 153 141 163 175 162 93 189 176 248 259 235 304 309 204 302 218 265 285 281 320 347 323 9 344 340 41 21 241 242 238
349 329 174 161 156 154 167 272 143 157 132 149 152 182 172 174 133 160 182 182 167 158 200 159 194 285 299 273 200 282 334 337 311 283 276 33 286 69 349 345 355 349 349 292 250
339 210 179 164 151 153 206 169 145 234 114 157 132 159 151 89 70 114 129 142 118 179 241 269 226 261 241 357 214 115 205 78 103 326 196 0 328 43 6 323 321 329 335 330 291
326 191 175 164 157 132 142 143 237 240 299 156 162 168 165 162 177 147 171 184 200 182 235 293 245 232 208 225 177 198 248 332 176 32 16 329 256 345 324 330 313 314 327 349 87
311 168 171 157 153 148 161 215 217 85 214 97 123 132 181 157 165 126 146 190 177 163 170 260 152 229 163 237 160 112 335 48 354 336 342 185 282 34 316 324 329 331 340 54 130
153 134 161 165 158 153 168 226 281 188 329 29 127 135 149 167 165 169 197 206 201 194 217 201 140 58 62 121 281 148 134 29 118 118 259 350 257 260 274 326 1 9 4 196 172
151 126 145 160 165 154 109 263 259 232 291 211 190 195 173 161 178 198 184 160 215 200 217 196 228 61 30 197 55 355 133 186 50 276 293 245 260 275 216 242 29 34 339 261 219
139 120 144 147 146 153 202 249 272 264 240 218 189 135 122 145 197 183 168 123 302 124 195 173 235 158 239 21 123 155 151 71 109 322 296 293 288 341 272 304 333 347 325 294 311
145 108 158 154 131 26 200 216 300 282 292 264 228 87 110 114 121 149 176 277 342 174 178 178 177 213 103 16 2 324 104 215 268 238 143 292 262 343 308 328 321 316 326 316 312
105 94 166 160 178 199 265 268 257 287 353 356 75 31 57 105 114 113 137 60 18 169 173 179 189 148 146 161 220 233 136 113 108 142 203 259 270 356 280 297 312 292 313 339 313
133 123 151 204 138 146 16 299 285 348 104 39 85 125 119 85 39 128 128 41 28 85 97 139 134 226 269 356 106 180 177 186 242 240 260 250 280 253 289 302 297 278 296 1 13
109 111 156 176 205 192 196 307 294 210 48 35 96 58 98 115 101 96 85 3 85 16 41 340 163 213 201 184 204 240 212 197 222 259 253 310 258 285 324 317 305 292 11 56 44
98 133 126 97 127 161 165 210 227 146 337 41 111 92 80 119 53 163 154 61 16 22 50 1 137 181 264 214 241 253 251 242 242 235 253 268 273 265 332 47 108 71 65 52 32
59 86 117 20 128 174 171 305 210 162 47 68 112 98 89 73 72 58 70 73 60 20 18 327 159 182 252 360 293 261 256 249 234 218 273 254 354 162 134 107 71 59 49 46 3